Theta_e
295 291 289 290 289 288 286 285 284 287 291 288 288 290 287 289 284 282 281 280 280 282 284 284 284 283 283 283 284 284 286 286 287 287 286 286 285 286 286 287 287 287 289 290
291 288 292 292 290 288 287 285 285 288 289 287 287 286 289 288 286 285 283 280 280 281 282 283 283 282 282 282 283 284 285 286 286 286 286 285 284 284 284 284 284 284 284 285
289 291 292 290 287 286 285 285 284 284 286 285 284 282 287 285 286 283 282 282 281 281 282 282 283 280 281 281 282 284 285 285 285 285 285 284 283 283 282 281 281 282 282 282
288 290 289 287 287 287 283 286 286 284 281 278 281 277 280 281 282 282 282 280 280 280 282 282 282 280 280 282 282 283 285 285 285 284 282 280 279 278 280 280 280 280 281 280
290 286 286 286 287 289 285 285 284 283 280 277 279 276 279 279 279 280 281 280 279 280 281 281 282 282 282 282 281 282 283 283 284 283 281 279 278 278 279 279 278 278 278 280
289 289 287 287 288 287 288 285 283 280 278 272 278 277 275 276 280 281 282 279 280 280 280 281 282 282 282 282 281 281 282 281 282 281 279 278 277 277 276 276 275 276 276 278
286 286 286 289 285 287 286 281 276 273 271 274 277 275 282 282 282 282 282 279 279 279 279 280 280 280 281 280 281 281 281 280 280 279 279 278 277 276 275 275 275 274 274 275
282 281 285 288 286 285 284 282 277 270 271 279 275 275 280 280 280 283 283 280 278 278 279 280 280 280 280 280 280 279 279 279 279 278 278 277 277 276 276 275 274 273 274 273
281 281 284 284 285 285 281 278 281 274 262 266 274 277 281 278 277 277 278 278 277 278 278 279 280 280 279 279 279 279 278 279 278 277 277 276 276 275 274 274 274 274 274 274
286 281 282 281 283 282 282 283 276 275 269 266 273 275 279 275 275 276 276 276 277 278 278 279 279 279 279 279 278 278 278 277 277 276 275 274 274 274 274 274 273 273 273 273
284 284 280 280 279 281 277 277 278 277 279 272 271 280 280 279 279 276 277 278 277 277 278 278 279 279 279 278 277 276 275 275 275 274 273 273 273 273 273 273 272 272 273 272
284 281 277 278 280 280 280 281 281 275 274 275 275 278 282 281 281 279 278 278 277 278 278 278 278 277 277 276 275 274 274 274 274 273 272 271 272 272 272 271 272 272 271 272
284 279 274 278 277 276 276 277 281 278 278 277 273 278 278 277 277 278 277 277 277 277 277 277 277 276 275 274 273 273 272 272 272 271 270 270 270 270 270 271 271 271 271 270
289 281 281 281 283 279 275 274 277 280 277 278 278 279 284 279 276 275 275 276 276 277 277 276 276 275 274 274 272 271 270 271 270 269 269 268 269 269 270 270 270 270 270 269
285 281 280 285 287 281 282 283 278 277 280 278 281 282 285 287 283 276 278 276 276 276 276 275 275 273 272 271 270 270 270 269 269 268 267 267 269 269 269 269 268 268 268 268
281 280 280 279 282 280 279 282 282 282 281 281 281 280 288 288 277 276 276 276 276 276 276 276 275 274 273 272 270 270 268 268 268 266 267 268 268 268 268 267 267 267 267 267
278 279 276 278 280 278 275 280 281 282 283 282 277 282 287 283 277 275 275 277 277 277 276 275 273 271 271 269 270 267 267 267 266 266 265 265 266 265 265 265 265 265 265 265
279 280 280 277 276 271 283 278 281 281 282 283 282 283 282 278 276 276 278 277 276 276 274 273 271 268 268 268 267 266 267 266 266 264 264 265 264 263 263 263 262 263 265 265
287 285 279 276 275 279 283 284 277 276 281 281 282 283 284 276 275 273 276 276 275 274 272 271 270 269 267 267 266 265 265 265 264 263 263 263 262 260 261 259 260 263 264 265
284 284 282 274 272 271 284 275 277 279 274 283 282 282 276 276 270 271 274 274 273 272 271 269 268 268 266 265 265 264 263 262 262 262 262 262 261 259 258 260 262 263 264 265
276 277 277 279 277 275 281 276 278 273 280 278 279 277 276 275 276 276 275 273 272 270 269 267 267 265 264 264 264 261 261 261 261 261 260 259 259 258 261 261 261 263 263 264
275 274 272 277 272 272 279 275 276 281 277 277 276 277 277 276 274 275 273 271 270 268 267 267 265 264 264 263 261 260 259 261 260 259 257 256 256 260 261 260 261 262 261 262
278 280 275 277 276 281 281 279 282 281 278 277 278 278 278 275 274 274 272 270 268 266 267 264 262 262 262 262 260 258 259 259 258 254 253 255 258 260 260 260 260 260 261 261
278 283 278 278 283 282 280 283 282 281 281 281 280 279 278 277 276 273 271 269 267 266 265 263 261 261 260 259 259 257 258 257 252 251 254 257 258 259 260 261 261 260 260 260
282 282 281 280 284 282 285 281 282 281 281 280 279 279 279 278 276 274 271 268 267 265 263 262 261 260 258 259 258 256 256 254 252 253 256 256 258 258 259 260 260 261 263 264
282 283 281 282 287 286 287 283 283 281 280 280 279 277 277 278 275 273 269 267 265 263 261 260 259 258 257 257 256 255 252 251 250 252 254 255 256 257 259 258 259 264 265 266
Wind_Speed
3 4 6 8 7 4 3 5 7 6 6 5 11 17 13 16 9 10 10 10 9 9 7 7 5 4 5 6 6 5 8 8 6 6 8 9 10 11 10 10 16 16 16 18
7 4 5 2 3 4 5 6 8 10 5 3 9 11 9 16 21 22 17 11 10 6 7 7 5 4 5 4 4 7 7 5 5 4 6 6 9 8 10 10 13 16 17 17
5 4 5 3 3 5 5 6 6 8 4 6 9 8 18 3 10 7 9 10 8 10 9 7 5 3 3 5 4 6 6 6 5 5 6 8 9 9 9 11 12 11 17 19
6 1 4 5 5 7 6 2 5 4 4 4 4 12 4 7 15 12 14 10 10 9 7 6 5 1 1 3 3 5 6 6 5 5 5 7 9 14 11 13 12 14 17 18
9 6 6 6 7 8 8 0 4 3 5 3 7 6 6 3 9 14 17 13 10 9 9 8 6 2 2 3 4 4 7 6 5 4 4 5 9 10 11 12 18 16 15 15
6 0 5 7 2 1 1 3 4 3 3 2 7 9 6 7 11 9 15 11 12 9 9 7 4 2 4 5 5 5 7 6 6 5 5 6 11 13 13 15 15 13 13 12
2 4 1 3 2 3 4 5 5 6 3 9 5 3 17 9 8 11 23 17 11 9 8 7 6 5 5 6 6 6 6 7 6 7 8 9 11 13 15 15 13 18 14 12
4 8 8 5 6 7 6 7 7 7 5 15 2 11 8 5 7 7 12 14 10 9 8 7 7 6 6 6 7 7 6 9 8 9 11 10 11 9 11 13 14 13 14 15
7 8 2 0 1 4 5 6 1 1 2 4 7 8 6 4 3 6 11 11 10 9 8 8 7 6 7 6 7 6 7 10 11 12 11 12 11 13 13 16 16 13 16 15
5 7 2 2 1 1 4 4 3 2 3 8 7 11 14 8 11 8 11 13 10 9 8 7 6 7 5 5 6 7 6 9 11 11 11 12 13 14 14 14 18 18 18 18
6 5 3 4 8 11 1 4 3 2 5 6 5 19 7 16 19 20 18 16 13 10 8 7 6 6 3 4 6 7 6 8 12 12 13 14 14 15 15 14 17 18 19 18
8 6 7 14 2 2 3 11 13 6 7 8 3 21 4 10 12 19 17 14 9 8 9 8 6 4 5 6 6 6 6 9 11 13 14 15 16 16 16 16 18 18 19 18
10 5 3 7 1 2 7 7 11 1 1 21 10 17 1 1 7 12 16 12 10 9 7 4 4 5 5 6 6 6 6 9 11 13 14 15 16 16 17 18 19 19 19 19
14 7 10 18 13 7 7 10 11 18 15 19 29 38 26 12 8 6 7 8 9 8 7 5 4 5 5 6 6 6 8 8 12 13 14 16 16 17 18 19 19 19 18 19
9 14 9 22 19 5 15 24 13 24 28 21 40 33 30 25 14 17 19 10 10 8 7 6 6 5 6 5 5 7 8 11 12 14 15 16 17 18 18 18 19 19 18 17
4 9 6 16 10 9 22 27 23 27 31 29 36 40 40 26 3 9 14 14 11 8 8 7 7 4 4 8 9 11 11 12 13 14 16 17 18 18 19 19 19 19 19 17
10 7 5 22 3 3 18 26 28 22 26 21 25 40 31 19 9 12 15 16 14 10 9 8 3 2 5 6 10 9 12 13 13 14 15 16 17 19 19 19 19 19 19 17
10 8 4 5 5 9 13 3 7 21 26 19 24 28 16 5 3 8 13 14 11 10 8 4 1 3 4 4 6 9 11 12 14 14 16 16 18 19 20 19 20 19 17 18
15 13 8 7 10 11 29 11 11 11 33 23 28 28 19 8 6 1 5 8 9 7 6 4 4 3 2 5 8 10 11 11 13 14 17 17 18 19 19 19 20 19 18 18
10 8 10 5 6 12 18 4 5 8 21 16 23 20 9 12 6 6 11 9 9 8 6 6 5 3 5 6 8 10 11 13 13 15 18 17 17 17 18 19 20 19 18 19
6 5 20 17 12 13 12 10 7 6 17 6 10 10 15 11 5 7 14 7 8 7 7 6 5 5 4 6 8 10 11 12 15 16 17 17 16 17 16 18 18 17 18 18
14 13 7 7 5 20 15 8 15 6 1 5 5 9 10 7 9 16 14 13 11 10 7 6 4 4 5 7 8 11 12 14 14 16 17 16 16 13 14 18 15 16 17 17
9 14 13 16 16 3 23 8 21 5 7 5 7 6 12 14 9 14 12 11 9 8 7 5 4 4 3 6 7 10 13 15 15 15 15 15 15 14 14 16 17 13 14 13
7 9 6 4 22 23 18 12 11 7 7 6 6 11 15 14 13 11 11 10 9 7 6 4 4 3 4 5 7 7 12 14 12 14 14 13 14 16 14 12 12 11 12 13
10 16 17 11 22 3 19 20 13 12 9 8 8 10 16 13 13 14 10 10 9 9 6 6 4 2 3 6 7 6 10 11 11 12 12 12 11 13 14 12 13 13 12 16
12 16 14 17 16 13 9 22 20 19 16 16 15 6 4 11 14 11 10 10 10 9 8 6 5 3 4 5 7 7 7 8 9 10 9 10 10 11 12 13 13 20 25 27
Wind_Direction
341 63 238 248 211 196 204 233 229 251 252 222 231 245 207 200 206 206 203 197 187 191 195 166 149 99 41 28 18 346 9 3 1 355 353 343 334 332 323 322 321 326 315 320
5 253 226 185 223 235 230 260 263 285 241 206 270 248 233 189 213 207 192 193 189 194 185 179 153 77 43 4 8 6 356 330 343 358 344 335 330 321 315 321 319 316 312 315
168 255 110 168 231 256 231 211 251 239 341 292 286 247 242 225 228 189 191 194 185 184 187 180 166 99 27 11 359 353 334 326 332 353 337 334 320 322 322 319 312 311 311 309
229 245 185 223 232 171 276 229 258 284 3 259 351 292 243 195 226 203 188 197 186 190 185 165 160 148 12 332 320 333 323 308 331 337 334 331 331 320 313 309 309 311 312 304
252 175 189 218 224 163 236 75 263 262 257 350 229 258 246 143 248 210 197 193 189 195 177 171 170 190 255 298 286 306 297 288 295 306 332 339 309 302 304 307 306 304 305 297
247 342 187 209 133 141 31 334 299 47 100 259 233 196 226 194 217 192 202 187 187 185 179 172 178 208 260 272 281 283 265 274 293 339 327 301 296 305 309 306 301 308 307 297
337 221 65 154 124 24 80 56 315 335 347 236 177 237 257 237 225 195 195 181 183 180 170 186 205 230 254 266 263 271 291 282 334 334 312 301 298 303 296 300 301 307 301 300
204 304 175 181 196 184 176 175 167 258 245 292 354 246 254 291 305 228 172 163 170 175 179 194 212 229 248 252 262 277 285 328 326 318 309 307 293 288 288 296 297 291 289 297
176 265 114 251 167 158 177 191 150 174 124 10 238 278 282 85 49 108 148 162 182 185 191 205 217 229 250 240 260 311 335 323 318 312 310 300 292 296 291 297 294 289 288 289
211 289 216 170 159 20 164 155 67 5 281 272 263 269 245 198 206 188 185 193 196 196 201 210 219 245 237 288 322 321 294 295 305 306 300 301 300 296 294 298 295 291 287 288
143 172 182 120 207 181 157 216 200 189 164 223 296 279 209 192 202 192 201 195 191 195 198 209 228 258 246 282 274 271 286 302 308 309 308 306 300 299 298 296 295 290 290 287
198 165 201 211 233 291 236 204 183 180 223 236 193 259 169 207 196 195 202 192 189 188 193 207 221 211 247 259 279 288 302 308 315 313 309 305 305 307 303 298 294 294 292 288
178 216 324 314 6 341 224 209 218 14 333 244 237 267 74 181 153 199 186 184 189 184 193 212 229 258 274 283 289 297 310 316 312 312 308 307 305 307 302 301 299 299 294 292
145 186 180 237 235 137 215 197 203 212 237 257 241 264 258 248 202 203 200 188 187 188 194 213 270 272 267 270 277 307 317 316 314 312 310 309 309 307 303 304 300 300 297 294
170 235 191 247 259 189 261 258 202 217 238 236 261 258 265 265 232 204 200 179 180 182 198 212 240 244 239 275 325 334 326 320 318 314 312 308 309 307 304 305 305 300 296 293
191 251 152 259 242 223 258 262 250 244 250 249 254 268 265 278 150 169 179 179 178 187 194 213 228 240 344 350 343 334 318 317 319 311 310 311 311 309 312 308 308 305 301 299
168 183 138 256 124 14 271 247 236 246 242 233 243 245 264 260 198 178 176 178 179 183 188 207 205 0 3 355 334 316 315 314 313 315 314 313 314 314 313 312 311 307 303 301
165 186 150 258 106 231 257 113 187 219 247 218 245 255 241 199 158 155 173 161 170 175 180 169 135 33 13 330 324 318 318 319 319 317 315 319 317 316 314 314 313 305 303 303
217 204 220 222 214 306 291 230 177 178 272 200 228 244 248 126 74 335 151 157 162 160 148 149 108 67 350 349 335 324 317 320 322 321 320 318 318 315 314 312 312 307 311 306
215 237 212 152 211 224 261 131 142 136 274 191 207 231 145 138 179 216 174 145 138 138 152 127 86 62 20 350 337 325 328 329 322 324 317 317 315 311 309 309 313 311 307 306
155 190 215 228 243 270 216 160 148 157 260 171 179 161 155 190 196 143 143 135 143 151 127 100 83 50 12 349 342 334 329 321 324 319 316 316 312 308 308 315 313 313 313 310
165 167 194 202 214 261 139 111 188 205 10 149 141 156 163 130 129 142 147 149 155 141 120 102 89 51 18 358 352 335 326 329 321 321 316 312 307 314 322 319 315 319 317 315
193 185 177 192 209 199 183 195 204 152 148 180 157 152 148 144 159 161 159 152 141 133 128 105 76 37 9 1 356 327 324 329 326 318 310 309 316 325 328 325 321 325 323 324
244 189 222 113 242 228 207 221 196 169 157 151 159 150 161 164 162 159 146 143 142 142 136 128 97 54 0 359 339 319 326 330 319 310 313 321 329 330 333 329 325 326 330 325
180 155 204 246 267 6 229 218 192 182 159 146 136 167 175 155 167 158 147 146 144 139 138 125 115 91 23 354 334 333 330 324 320 314 319 328 331 333 331 339 330 334 336 338
190 191 190 223 223 203 240 196 192 185 179 160 163 164 169 161 160 150 147 145 139 142 140 130 120 107 36 356 336 330 318 318 312 321 328 332 334 335 336 335 333 339 351 356